Location: Boiro
(42.6475°N, 8.8834°W)
Time: 12:20:54
(UTC+02:00)

deb Agena D - Pass Details

Date: 03 July 2022
Orbit: 997 x 1025 km, 100.1° (Epoch: 16 August)

Event Time Altitude Azimuth Distance (km) Brightness Sun altitude
Exits shadow 02:00:52 45° 198° (SSW) 1,362 ? -23.8°
Maximum altitude 02:02:43 64° 257° (WSW) 1,132 ? -23.8°
Drops below altitude 10° 02:09:02 10° 338° (NNW) 2,827 ? -24.0°
Sets 02:11:35 0° 342° (NNW) 3,782 ? -24.1°
